Aérodrome :
LOGIN :

S'inscrire | Disclaimer

   EN    FR    IT 

 










Légende :    VFR   VFR Marginal   IFR   IFR Intensif   IFR Très Intensif
Visi : 
Plafond : 
>= 8 km
>= 3000ft
5 à 8 km
1000 à 3000 ft
1500m à 5 km
500 à 1000 ft
800 à 1500m
200 à 500 ft
< 800m
< 200 ft
Symboles :   Orages  Brouillard  Fortes neiges  Fortes précipitations  Vent > 20 kt
SIGMETs :   Divers  Orages  Givrage  Turbulence  Onde Orograph.  Cendres Volcan.







- Altitude de l'aérodrome : 336 ft
- Code IATA : GCI
- Voir les cartes d'approche


EGJB - Guernsey

DERNIER METAR :
  • 171420Z 27012KT 9999 FEW020 18/12 Q1023

METARs EXPIRÉS :
  • 171350Z 28012KT 9999 FEW020 SCT045 19/12 Q1023
  • 171320Z 28011KT 240V320 9999 FEW018 19/12 Q1023
  • 171250Z 29012KT 9999 FEW018 19/12 Q1023
  • 171220Z 28011KT 250V320 9999 FEW018 18/12 Q1023
  • 171150Z 29010KT 9999 FEW018 18/12 Q1023

TAF TAF EGJB
Valide du 17 à 12h jusqu'au 17 à 21h UTC


171056Z 1712/1721 28011KT 9999 FEW015 SCT030
ATIS : +44 1481 238 957
Pas de NOTAMs connus pour ce terrain.



MET'MAP, la Météo Aéronautique d'un coup d'oeil ! - Copyright ORBIFLY Décembre 2007 - Disclaimer

ORBIFLY MET'MAP TEAM :

Programmation & Développement : Alexandra Zaïnal
Conception & Développement : Baudouin d'Aumeries
Co-Programmation & Développement : Marc-Olivier Méhu
Soutien technique & logistique : Manuel Goepfert

Contact : metmap@orbifly.com




SOURCES & CREDITS :

   NOAA